Back to catalog

COSMOS 2251 DEB

AliveLEO
NORAD 34964·DEBRIS·🇷🇺 Russia

Launched Jun 16, 1993 from Plesetsk Cosmodrome

Loading…

Next Passes (next 24 hours)

TLE

StaleSource: Space-Track

Epoch: Aug 22, 2026, 20:07 UTC

1 34964U 93036AET 26234.83841504  .00001486  00000-0  82373-3 0  9992
2 34964  73.9683 266.9057 0207762  70.1551 292.1845 14.01696344880232

Track COSMOS 2251 DEB in real time with AllMySat

Download on the App Store